| time (UTC) | temp C | wind direction | speed KPH | gust KPH | rain 1hr cm | rain 24hr cm | rain mn cm | humidity % | barometer mb |
| 20260510233014 | 29 | 297 | 6.4 | 12.9 | 0.00 | 0.00 | 0.00 | 53 | 1009.2 |
| 20260510231545 | 29 | 216 | 6.4 | 11.3 | 0.00 | 0.00 | 0.00 | 53 | 1009.3 |
| 20260510230020 | 29 | 215 | 8.0 | 14.5 | 0.00 | 0.00 | 0.00 | 54 | 1009.4 |
| 20260510224610 | 29 | 241 | 6.4 | 16.1 | 0.00 | 0.00 | 0.00 | 56 | 1009.5 |
| 20260510223057 | 29 | 223 | 8.0 | 16.1 | 0.00 | 0.00 | 0.00 | 58 | 1009.5 |
| 20260510221540 | 29 | 232 | 6.4 | 16.1 | 0.00 | 0.00 | 0.00 | 59 | 1009.6 |
| 20260510220134 | 29 | 217 | 3.2 | 16.1 | 0.00 | 0.00 | 0.00 | 58 | 1009.8 |
| 20260510214500 | 28 | 196 | 9.7 | 16.1 | 0.00 | 0.00 | 0.00 | 58 | 1009.9 |
| 20260510213052 | 28 | 219 | 12.9 | 19.3 | 0.00 | 0.00 | 0.00 | 61 | 1010.2 |
| 20260510211543 | 29 | 200 | 4.8 | 17.7 | 0.00 | 0.00 | 0.00 | 60 | 1010.4 |
| 20260510210138 | 28 | 213 | 9.7 | 17.7 | 0.00 | 0.00 | 0.00 | 54 | 1010.5 |
| 20260510204546 | 28 | 168 | 8.0 | 16.1 | 0.00 | 0.00 | 0.00 | 57 | 1010.5 |
| 20260510203032 | 29 | 235 | 8.0 | 19.3 | 0.00 | 0.00 | 0.00 | 58 | 1010.6 |
| 20260510201524 | 30 | 198 | 6.4 | 16.1 | 0.00 | 0.00 | 0.00 | 55 | 1010.8 |
| 20260510200120 | 29 | 216 | 8.0 | 17.7 | 0.00 | 0.00 | 0.00 | 55 | 1010.8 |
| 20260510194606 | 29 | 188 | 8.0 | 16.1 | 0.00 | 0.00 | 0.00 | 54 | 1010.9 |
| 20260510193052 | 29 | 230 | 6.4 | 16.1 | 0.00 | 0.00 | 0.00 | 53 | 1011.0 |
| 20260510191548 | 28 | 246 | 9.7 | 16.1 | 0.00 | 0.00 | 0.00 | 55 | 1011.1 |
| 20260510190013 | 28 | 213 | 9.7 | 16.1 | 0.00 | 0.00 | 0.00 | 56 | 1011.2 |
| 20260510184601 | 28 | 270 | 6.4 | 16.1 | 0.00 | 0.00 | 0.00 | 58 | 1011.3 |
| 20260510183049 | 29 | 213 | 6.4 | 11.3 | 0.00 | 0.00 | 0.00 | 58 | 1011.3 |
| 20260510181537 | 28 | 228 | 3.2 | 12.9 | 0.00 | 0.00 | 0.00 | 63 | 1011.4 |
| 20260510180130 | 28 | 221 | 6.4 | 14.5 | 0.00 | 0.00 | 0.00 | 62 | 1011.6 |
| 20260510174519 | 28 | 229 | 8.0 | 14.5 | 0.00 | 0.00 | 0.00 | 63 | 1011.6 |
| 20260510173001 | 28 | 218 | 6.4 | 12.9 | 0.00 | 0.00 | 0.00 | 62 | 1011.6 |
| 20260510171551 | 28 | 246 | 4.8 | 11.3 | 0.00 | 0.00 | 0.00 | 61 | 1011.5 |
| 20260510170136 | 27 | 214 | 8.0 | 12.9 | 0.00 | 0.00 | 0.00 | 66 | 1011.6 |
| 20260510164516 | 27 | 205 | 6.4 | 12.9 | 0.00 | 0.00 | 0.00 | 67 | 1011.7 |
| 20260510163006 | 27 | 205 | 8.0 | 12.9 | 0.00 | 0.00 | 0.00 | 66 | 1011.8 |
| 20260510161543 | 28 | 240 | 4.8 | 9.7 | 0.00 | 0.00 | 0.00 | 63 | 1011.8 |
| 20260510160005 | 28 | 224 | 3.2 | 6.4 | 0.00 | 0.00 | 0.00 | 54 | 1011.7 |
| 20260510154613 | 27 | 313 | 0.0 | 3.2 | 0.00 | 0.00 | 0.00 | 58 | 1011.5 |
| 20260510153049 | 26 | 313 | 1.6 | 4.8 | 0.00 | 0.00 | 0.00 | 58 | 1011.5 |
| 20260510151534 | 26 | 346 | 0.0 | 3.2 | 0.00 | 0.00 | 0.00 | 66 | 1011.5 |
| 20260510150008 | 25 | 5 | 1.6 | 3.2 | 0.00 | 0.00 | 0.00 | 71 | 1011.5 |
| 20260510144506 | 25 | 5 | 0.0 | 4.8 | 0.00 | 0.00 | 0.00 | 72 | 1011.5 |
| 20260510143056 | 24 | 5 | 1.6 | 4.8 | 0.00 | 0.00 | 0.00 | 71 | 1011.3 |
| 20260510141550 | 23 | 5 | 1.6 | 4.8 | 0.00 | 0.00 | 0.00 | 71 | 1011.4 |
| 20260510140150 | 23 | 11 | 0.0 | 6.4 | 0.00 | 0.00 | 0.00 | 73 | 1011.1 |
| 20260510134549 | 22 | 5 | 0.0 | 3.2 | 0.00 | 0.00 | 0.00 | 75 | 1011.0 |
| 20260510133044 | 22 | 5 | 0.0 | 3.2 | 0.00 | 0.00 | 0.00 | 76 | 1011.0 |
| 20260510131542 | 21 | 5 | 1.6 | 4.8 | 0.00 | 0.00 | 0.00 | 78 | 1011.0 |
| 20260510130123 | 21 | 5 | 1.6 | 4.8 | 0.00 | 0.00 | 0.00 | 78 | 1010.8 |
| 20260510124534 | 21 | 355 | 0.0 | 3.2 | 0.00 | 0.00 | 0.00 | 78 | 1010.7 |
| 20260510123013 | 21 | 355 | 0.0 | 4.8 | 0.00 | 0.00 | 0.00 | 76 | 1010.6 |
| 20260510121556 | 21 | 355 | 0.0 | 3.2 | 0.00 | 0.00 | 0.00 | 77 | 1010.5 |
| 20260510120137 | 21 | 355 | 0.0 | 4.8 | 0.00 | 0.00 | 0.00 | 78 | 1010.5 |
| 20260510114519 | 21 | 355 | 1.6 | 4.8 | 0.00 | 0.00 | 0.00 | 78 | 1010.5 |
| 20260510113005 | 21 | 355 | 1.6 | 3.2 | 0.00 | 0.00 | 0.00 | 79 | 1010.4 |
| 20260510111607 | 21 | 355 | 0.0 | 4.8 | 0.00 | 0.00 | 0.00 | 80 | 1010.3 |
| 20260510110144 | 21 | 355 | 0.0 | 3.2 | 0.00 | 0.00 | 0.00 | 80 | 1010.3 |
| 20260510104532 | 21 | 355 | 0.0 | 3.2 | 0.00 | 0.00 | 0.00 | 81 | 1010.1 |
| 20260510103007 | 21 | 355 | 1.6 | 6.4 | 0.00 | 0.00 | 0.00 | 80 | 1010.1 |
| 20260510101551 | 21 | 355 | 1.6 | 3.2 | 0.00 | 0.00 | 0.00 | 80 | 1010.2 |
| 20260510100131 | 21 | 355 | 0.0 | 3.2 | 0.00 | 0.00 | 0.00 | 80 | 1009.9 |
| 20260510094518 | 21 | 355 | 0.0 | 3.2 | 0.00 | 0.00 | 0.00 | 80 | 1009.8 |
| 20260510093002 | 22 | 355 | 0.0 | 4.8 | 0.00 | 0.00 | 0.00 | 79 | 1009.8 |
| 20260510091554 | 22 | 351 | 0.0 | 3.2 | 0.00 | 0.00 | 0.00 | 79 | 1009.8 |
| 20260510090142 | 22 | 46 | 0.0 | 0.0 | 0.00 | 0.00 | 0.00 | 79 | 1009.9 |
| 20260510084532 | 22 | 46 | 0.0 | 0.0 | 0.00 | 0.00 | 0.00 | 79 | 1010.0 |
| 20260510083003 | 22 | 46 | 0.0 | 0.0 | 0.00 | 0.00 | 0.00 | 80 | 1010.3 |
| 20260510081553 | 22 | 46 | 0.0 | 0.0 | 0.00 | 0.00 | 0.00 | 80 | 1010.4 |
| 20260510080126 | 22 | 46 | 0.0 | 3.2 | 0.00 | 0.00 | 0.00 | 80 | 1010.5 |
| 20260510074515 | 22 | 46 | 1.6 | 3.2 | 0.00 | 0.00 | 0.00 | 80 | 1010.7 |
| 20260510073056 | 22 | 65 | 0.0 | 4.8 | 0.00 | 0.00 | 0.00 | 80 | 1010.8 |
| 20260510071547 | 23 | 73 | 1.6 | 3.2 | 0.00 | 0.00 | 0.00 | 80 | 1010.8 |
| 20260510070135 | 23 | 112 | 0.0 | 0.0 | 0.00 | 0.00 | 0.00 | 82 | 1010.9 |
| 20260510064530 | 23 | 155 | 0.0 | 3.2 | 0.00 | 0.00 | 0.00 | 82 | 1011.0 |
| 20260510063013 | 24 | 264 | 0.0 | 0.0 | 0.00 | 0.00 | 0.00 | 80 | 1011.1 |
| 20260510061559 | 23 | 264 | 0.0 | 0.0 | 0.00 | 0.00 | 0.00 | 82 | 1011.3 |
| 20260510060144 | 23 | 264 | 0.0 | 0.0 | 0.00 | 0.00 | 0.00 | 83 | 1011.4 |
| 20260510054517 | 24 | 264 | 0.0 | 3.2 | 0.00 | 0.00 | 0.00 | 81 | 1011.5 |
| 20260510053002 | 24 | 265 | 0.0 | 3.2 | 0.00 | 0.00 | 0.00 | 79 | 1011.4 |
| 20260510051550 | 24 | 265 | 0.0 | 0.0 | 0.00 | 0.00 | 0.00 | 79 | 1011.3 |
| 20260510050134 | 24 | 265 | 0.0 | 3.2 | 0.00 | 0.00 | 0.00 | 79 | 1011.2 |
| 20260510044532 | 24 | 265 | 0.0 | 0.0 | 0.00 | 0.00 | 0.00 | 78 | 1011.2 |
| 20260510043010 | 25 | 265 | 0.0 | 1.6 | 0.00 | 0.00 | 0.00 | 78 | 1010.9 |
| 20260510041554 | 24 | 257 | 3.2 | 6.4 | 0.00 | 0.00 | 0.00 | 79 | 1010.8 |
| 20260510040008 | 25 | 304 | 1.6 | 8.0 | 0.00 | 0.00 | 0.00 | 79 | 1010.6 |
| 20260510034546 | 25 | 264 | 3.2 | 6.4 | 0.00 | 0.00 | 0.00 | 79 | 1010.5 |
| 20260510033012 | 25 | 290 | 3.2 | 11.3 | 0.00 | 0.00 | 0.00 | 78 | 1010.2 |
| 20260510030131 | 25 | 287 | 1.6 | 12.9 | 0.00 | 0.00 | 0.00 | 77 | 1009.8 |
| 20260510024518 | 25 | 303 | 3.2 | 11.3 | 0.00 | 0.00 | 0.00 | 76 | 1009.6 |
| 20260510023005 | 25 | 279 | 3.2 | 8.0 | 0.00 | 0.00 | 0.00 | 75 | 1009.4 |
| 20260510021554 | 25 | 292 | 3.2 | 11.3 | 0.00 | 0.00 | 0.00 | 75 | 1009.2 |
| 20260510020007 | 25 | 301 | 4.8 | 8.0 | 0.00 | 0.00 | 0.00 | 73 | 1009.1 |
| 20260510014502 | 26 | 300 | 3.2 | 12.9 | 0.00 | 0.00 | 0.00 | 71 | 1008.9 |
| 20260510013057 | 26 | 298 | 6.4 | 12.9 | 0.00 | 0.00 | 0.00 | 67 | 1008.9 |
| 20260510011552 | 26 | 286 | 6.4 | 12.9 | 0.00 | 0.00 | 0.00 | 64 | 1008.8 |
| 20260510010139 | 26 | 284 | 3.2 | 14.5 | 0.00 | 0.00 | 0.00 | 62 | 1008.7 |
| 20260510004536 | 26 | 284 | 6.4 | 16.1 | 0.00 | 0.00 | 0.00 | 59 | 1008.5 |
| 20260510003024 | 26 | 269 | 8.0 | 17.7 | 0.00 | 0.00 | 0.00 | 62 | 1008.3 |
| 20260510001604 | 27 | 274 | 9.7 | 19.3 | 0.00 | 0.00 | 0.00 | 66 | 1008.2 |
| 20260510001503 | 26 | 267 | 8.0 | 19.3 | 0.00 | 0.00 | 0.00 | 66 | 1008.2 |
| 20260510000015 | 27 | 290 | 8.0 | 16.1 | 0.00 | 0.00 | 0.00 | 66 | 1008.2 |
| 20260509234512 | 27 | 218 | 8.0 | 17.7 | 0.00 | 0.00 | 0.00 | 59 | 1008.1 |